When you browse on this site, cookies collect data to enhance your experience and personalize the content and advertising you see.
Visit our Privacy Policy to learn more. By continuing to use the site, you agree to this use of cookies and data.
  • In Sweden
  • List of Countries
  • For 7 days
  • Water Temperature
  • Weather Map
  • Weather Widgets
  • user-avatar
    Login

    Hourly Weather Seregélyes

    Today, 17 October, Thursday

    Time Temperature Precipitation Wind Pressure Humidity
    00:00 +13°C° 0 mm 1 mps 753 mmHg 75%
    01:00 +13°C° 0 mm 1 mps 754 mmHg 73%
    02:00 +13°C° 0 mm 1 mps 754 mmHg 72%
    03:00 +12°C° 0 mm 1 mps 753 mmHg 70%
    04:00 +12°C° 0 mm 1 mps 753 mmHg 69%
    05:00 +13°C° 0 mm 1 mps 753 mmHg 68%
    06:00 +12°C° 0 mm 0 mps 753 mmHg 66%
    07:00 +12°C° 0 mm 0 mps 754 mmHg 63%
    08:00 +14°C° 0 mm 0 mps 754 mmHg 57%
    09:00 +16°C° 0 mm 0 mps 754 mmHg 51%
    10:00 +19°C° 0 mm 1 mps 754 mmHg 44%
    11:00 +21°C° 0 mm 1 mps 754 mmHg 44%
    12:00 +22°C° 0 mm 1 mps 754 mmHg 44%
    13:00 +23°C° 0 mm 2 mps 753 mmHg 44%
    14:00 +23°C° 0 mm 1 mps 753 mmHg 46%
    15:00 +22°C° 0 mm 1 mps 753 mmHg 49%
    16:00 +22°C° 0 mm 1 mps 753 mmHg 52%
    17:00 +21°C° 0 mm 1 mps 753 mmHg 56%
    18:00 +19°C° 0 mm 1 mps 753 mmHg 60%
    19:00 +18°C° 0 mm 1 mps 753 mmHg 65%
    20:00 +18°C° 0 mm 1 mps 753 mmHg 68%
    21:00 +16°C° 0 mm 1 mps 753 mmHg 71%
    22:00 +16°C° 0 mm 1 mps 753 mmHg 74%
    23:00 +15°C° 0 mm 1 mps 753 mmHg 76%

    Tomorrow, 18 October, Friday

    Time Temperature Precipitation Wind Pressure Humidity
    00:00 +15°C° 0 mm 1 mps 753 mmHg 79%
    01:00 +15°C° 0 mm 1 mps 752 mmHg 81%
    02:00 +14°C° 0 mm 1 mps 752 mmHg 82%
    03:00 +14°C° 0 mm 1 mps 752 mmHg 83%
    04:00 +14°C° 0 mm 1 mps 752 mmHg 84%
    05:00 +14°C° 0 mm 1 mps 752 mmHg 82%
    06:00 +14°C° 0 mm 1 mps 752 mmHg 81%
    07:00 +14°C° 0 mm 1 mps 752 mmHg 80%
    08:00 +16°C° 0 mm 1 mps 752 mmHg 72%
    09:00 +18°C° 0 mm 2 mps 752 mmHg 64%
    10:00 +20°C° 0 mm 2 mps 752 mmHg 56%
    11:00 +21°C° 0 mm 3 mps 752 mmHg 52%
    12:00 +22°C° 0 mm 3 mps 751 mmHg 47%
    13:00 +23°C° 0 mm 4 mps 751 mmHg 43%
    14:00 +23°C° 0 mm 4 mps 751 mmHg 45%
    15:00 +22°C° 0 mm 3 mps 750 mmHg 47%
    16:00 +22°C° 0 mm 3 mps 750 mmHg 49%
    17:00 +20°C° 0 mm 3 mps 750 mmHg 54%
    18:00 +19°C° 0 mm 2 mps 750 mmHg 59%
    19:00 +17°C° 0 mm 2 mps 750 mmHg 64%
    20:00 +17°C° 0 mm 2 mps 751 mmHg 64%
    21:00 +16°C° 0 mm 2 mps 751 mmHg 65%
    22:00 +16°C° 0 mm 2 mps 751 mmHg 65%
    23:00 +16°C° 0 mm 2 mps 751 mmHg 68%

    Day after tomorrow, 19 October, Saturday

    Time Temperature Precipitation Wind Pressure Humidity
    00:00 +15°C° 0 mm 2 mps 751 mmHg 72%
    01:00 +15°C° 0 mm 2 mps 751 mmHg 75%
    02:00 +14°C° 0 mm 2 mps 751 mmHg 78%
    03:00 +14°C° 0 mm 2 mps 751 mmHg 80%
    04:00 +13°C° 0 mm 2 mps 751 mmHg 83%
    05:00 +13°C° 0 mm 2 mps 751 mmHg 83%
    06:00 +13°C° 0 mm 2 mps 751 mmHg 84%
    07:00 +13°C° 0 mm 2 mps 751 mmHg 84%
    08:00 +14°C° 0 mm 3 mps 751 mmHg 73%
    09:00 +18°C° 0 mm 3 mps 751 mmHg 63%
    10:00 +20°C° 0 mm 4 mps 751 mmHg 53%
    11:00 +21°C° 0 mm 5 mps 751 mmHg 47%
    12:00 +23°C° 0 mm 5 mps 751 mmHg 42%
    13:00 +24°C° 0 mm 6 mps 751 mmHg 37%
    14:00 +23°C° 0 mm 5 mps 750 mmHg 39%
    15:00 +23°C° 0 mm 5 mps 750 mmHg 41%
    16:00 +22°C° 0 mm 4 mps 749 mmHg 44%
    17:00 +21°C° 0 mm 4 mps 750 mmHg 48%
    18:00 +19°C° 0 mm 4 mps 750 mmHg 52%
    19:00 +18°C° 0 mm 4 mps 750 mmHg 56%
    20:00 +18°C° 0 mm 4 mps 750 mmHg 57%
    21:00 +18°C° 0 mm 4 mps 750 mmHg 59%
    22:00 +17°C° 0 mm 4 mps 751 mmHg 60%
    23:00 +17°C° 0 mm 4 mps 751 mmHg 64%

    20 October, Sunday

    Time Temperature Precipitation Wind Pressure Humidity
    00:00 +15°C° 0 mm 4 mps 751 mmHg 67%
    01:00 +15°C° 0 mm 4 mps 751 mmHg 71%
    02:00 +15°C° 0 mm 4 mps 751 mmHg 74%
    03:00 +15°C° 0 mm 4 mps 751 mmHg 76%
    04:00 +15°C° 0 mm 4 mps 751 mmHg 79%
    05:00 +15°C° 0 mm 4 mps 751 mmHg 79%
    06:00 +15°C° 0 mm 4 mps 751 mmHg 78%
    07:00 +15°C° 0 mm 4 mps 751 mmHg 78%
    08:00 +18°C° 0 mm 4 mps 752 mmHg 69%
    09:00 +20°C° 0 mm 5 mps 752 mmHg 60%
    10:00 +22°C° 0 mm 6 mps 752 mmHg 51%
    11:00 +23°C° 0 mm 6 mps 752 mmHg 47%
    12:00 +24°C° 0 mm 7 mps 751 mmHg 42%
    13:00 +26°C° 0 mm 7 mps 751 mmHg 38%
    14:00 +26°C° 0 mm 6 mps 751 mmHg 40%
    15:00 +24°C° 0 mm 6 mps 751 mmHg 43%
    16:00 +25°C° 0 mm 5 mps 751 mmHg 45%
    17:00 +22°C° 0 mm 5 mps 751 mmHg 50%
    18:00 +21°C° 0 mm 4 mps 751 mmHg 55%
    19:00 +19°C° 0 mm 4 mps 751 mmHg 59%
    20:00 +19°C° 0 mm 4 mps 751 mmHg 60%
    21:00 +19°C° 0 mm 4 mps 751 mmHg 61%
    22:00 +18°C° 0 mm 4 mps 751 mmHg 61%
    23:00 +18°C° 0 mm 4 mps 751 mmHg 63%

    21 October, Monday

    Time Temperature Precipitation Wind Pressure Humidity
    00:00 +17°C° 0 mm 5 mps 751 mmHg 64%
    01:00 +17°C° 0 mm 5 mps 751 mmHg 65%
    02:00 +17°C° 0 mm 5 mps 751 mmHg 65%
    03:00 +17°C° 0 mm 6 mps 751 mmHg 65%
    04:00 +17°C° 0 mm 6 mps 751 mmHg 64%
    05:00 +17°C° 0 mm 6 mps 751 mmHg 63%
    06:00 +17°C° 0 mm 6 mps 751 mmHg 61%
    07:00 +17°C° 0 mm 6 mps 751 mmHg 60%
    08:00 +20°C° 0 mm 7 mps 751 mmHg 53%
    09:00 +22°C° 0 mm 7 mps 752 mmHg 47%
    10:00 +24°C° 0 mm 8 mps 752 mmHg 41%
    11:00 +26°C° 0 mm 8 mps 752 mmHg 40%
    12:00 +27°C° 0 mm 8 mps 752 mmHg 40%
    13:00 +28°C° 0 mm 7 mps 752 mmHg 39%
    14:00 +27°C° 0 mm 6 mps 752 mmHg 43%
    15:00 +26°C° 0 mm 5 mps 751 mmHg 46%
    16:00 +25°C° 0 mm 4 mps 751 mmHg 50%
    17:00 +23°C° 0 mm 4 mps 752 mmHg 56%
    18:00 +22°C° 0 mm 3 mps 752 mmHg 62%
    19:00 +20°C° 0 mm 3 mps 753 mmHg 68%
    20:00 +20°C° 0 mm 3 mps 753 mmHg 71%
    21:00 +19°C° 0 mm 2 mps 753 mmHg 74%
    22:00 +18°C° 0 mm 2 mps 753 mmHg 77%
    23:00 +18°C° 0 mm 2 mps 753 mmHg 78%

    22 October, Tuesday

    Time Temperature Precipitation Wind Pressure Humidity
    00:00 +17°C° 0 mm 2 mps 754 mmHg 78%
    01:00 +17°C° 0 mm 2 mps 754 mmHg 79%
    02:00 +16°C° 0 mm 1 mps 754 mmHg 80%
    03:00 +16°C° 0 mm 1 mps 754 mmHg 80%
    04:00 +16°C° 0 mm 1 mps 754 mmHg 81%
    05:00 +15°C° 0 mm 1 mps 755 mmHg 81%
    06:00 +15°C° 0 mm 1 mps 755 mmHg 82%
    07:00 +15°C° 0 mm 1 mps 755 mmHg 82%
    08:00 +18°C° 0 mm 1 mps 755 mmHg 74%
    09:00 +19°C° 0 mm 2 mps 756 mmHg 67%
    10:00 +21°C° 0 mm 2 mps 756 mmHg 59%
    11:00 +23°C° 0 mm 2 mps 756 mmHg 56%
    12:00 +24°C° 0 mm 2 mps 756 mmHg 53%
    13:00 +25°C° 0 mm 2 mps 756 mmHg 50%
    14:00 +24°C° 0 mm 2 mps 756 mmHg 52%
    15:00 +24°C° 0 mm 2 mps 756 mmHg 55%
    16:00 +23°C° 0 mm 2 mps 755 mmHg 57%
    17:00 +22°C° 0 mm 1 mps 755 mmHg 61%
    18:00 +21°C° 0 mm 1 mps 756 mmHg 66%
    19:00 +19°C° 0 mm 1 mps 756 mmHg 70%
    20:00 +19°C° 0 mm 1 mps 756 mmHg 72%
    21:00 +18°C° 0 mm 1 mps 756 mmHg 74%
    22:00 +18°C° 0 mm 1 mps 756 mmHg 76%
    23:00 +16°C° 0 mm 2 mps 756 mmHg 77%
    Show more